This demonstration page uses our WeatherBlox Daily Observations layout. Learn more.

Left ArrowRight Arrow

30.21309, -93.2044

Hourly Observations for May 18, 2022

Temp ( °F °C ) Dew Point ( °F °C ) Humidity (%) Winds ( mph kmh ) Pressure ( in mb ) Visibility ( mi km ) Precip ( " mm )
12:15 am 00:15 Clear 70 20.9 67 19.7 93 93 SSE 3 6 29.96 1015 10 16 0.00 0.00
12:35 am 00:35 Clear with Mist and Fog 67 19.6 66 18.7 95 95 S 5 7 29.96 1015 7 11 0.00 0.00
12:55 am 00:55 Clear 68 20 66 19.1 95 95 S 6 9 29.96 1015 10 16 0.00 0.00
1:15 am 01:15 Clear 71 21.6 68 20.2 92 92 SSW 6 9 29.95 1014 10 16 0.00 0.00
1:35 am 01:35 Clear 74 23.1 70 21 88 88 SSW 6 9 29.95 1014 10 16 0.00 0.00
1:55 am 01:55 Clear 73 22.6 69 20.5 88 88 S 5 7 29.94 1014 10 16 0.00 0.00
2:15 am 02:15 Clear 69 20.4 67 19.3 93 93 S 3 6 29.94 1014 7 11 0.00 0.00
2:35 am 02:35 Partly Cloudy with Mist and Fog 67 19.6 66 18.7 95 95 S 5 7 29.93 1014 2 2 0.00 0.00
2:55 am 02:55 Partly Cloudy with Mist and Fog 68 20.1 67 19.3 95 95 SSW 6 9 29.93 1014 7 11 0.00 0.00
3:15 am 03:15 Mostly Cloudy 74 23.2 71 21.5 90 90 SW 6 9 29.93 1014 10 16 0.00 0.00
3:35 am 03:35 Partly Cloudy 74 23.4 71 21.4 89 89 SW 6 9 29.93 1014 10 16 0.00 0.00
3:55 am 03:55 Partly Cloudy 75 23.8 71 21.5 87 87 SW 6 9 29.94 1014 10 16 0.00 0.00
4:15 am 04:15 Partly Cloudy 76 24.2 71 21.5 85 85 SSW 8 13 29.94 1014 10 16 0.00 0.00
4:35 am 04:35 Partly Cloudy 74 23.1 70 21.1 89 89 S 7 11 29.93 1014 10 16 0.00 0.00
4:55 am 04:55 Partly Cloudy 70 21.3 68 20 92 92 S 5 7 29.93 1014 10 16 0.00 0.00
5:15 am 05:15 Mostly Cloudy 71 21.7 69 20.4 92 92 Calm 29.95 1014 10 16 0.00 0.00
5:35 am 05:35 Cloudy 73 22.5 70 20.9 91 91 Calm 29.96 1015 10 16 0.00 0.00
6:00 am 06:00 Mostly Cloudy 72 22 70 21 94 94 Calm 29.96 1015 10 16 0.00 0.00
6:55 am 06:55 Partly Cloudy 72 22 70 21 94 94 Calm 29.99 1016 10 16 0.00 0.00
7:50 am 07:50 Partly Cloudy 79 26 72 22 79 79 SSW 6 9 30.01 1016 10 16 0.00 0.00
8:50 am 08:50 Partly Cloudy 82 28 72 22 70 70 SSW 12 19 30.01 1016 10 16 0.00 0.00
9:47 am 09:47 Mostly Cloudy 82 28 70 21 66 66 SW 12 19 30.02 1017 10 16 0.00 0.00
10:47 am 10:47 Mostly Cloudy 84 29 72 22 66 66 SSE 14 22 30.02 1017 10 16 0.00 0.00
11:47 am 11:47 Mostly Sunny 88 31 70 21 55 55 SSW 14 22 30.01 1016 10 16 0.00 0.00
12:45 pm 12:45 Mostly Sunny 90 32 70 21 52 52 SSW 16 26 29.99 1016 10 16 0.00 0.00
1:45 pm 13:45 Mostly Sunny 90 32 66 19 46 46 SW 16 26 29.97 1015 10 16 0.00 0.00
2:47 pm 14:47 Mostly Sunny 90 32 66 19 46 46 SSW 15 24 29.95 1014 10 16 0.00 0.00
3:47 pm 15:47 Mostly Sunny 90 32 70 21 52 52 SSW 16 26 29.94 1014 10 16 0.00 0.00
4:45 pm 16:45 Mostly Sunny 88 31 70 21 55 55 SSW 13 20 29.92 1013 10 16 0.00 0.00
5:45 pm 17:45 Mostly Sunny 88 31 70 21 55 55 SSW 16 26 29.92 1013 10 16 0.00 0.00
6:46 pm 18:46 Partly Cloudy 84 29 70 21 62 62 SSW 15 24 29.92 1013 10 16 0.00 0.00
7:55 pm 19:55 Partly Cloudy 81 27 70 21 70 70 SSW 10 17 29.91 1013 10 16 0.00 0.00
8:46 pm 20:46 Mostly Clear 79 26 70 21 74 74 S 9 15 29.92 1013 10 16 0.00 0.00
9:50 pm 21:50 Mostly Clear 72 22 70 21 94 94 SSE 8 13 29.94 1014 10 16 0.00 0.00
10:15 pm 22:15 Clear 72 22.2 69 20.6 91 91 S 6 9 29.94 1014 10 16 0.00 0.00
10:35 pm 22:35 Clear 74 23.5 70 21.3 88 88 S 8 13 29.94 1014 10 16 0.00 0.00
10:55 pm 22:55 Clear 74 23.4 70 21.1 87 87 S 6 9 29.94 1014 10 16 0.00 0.00
11:15 pm 23:15 Clear 75 24 72 22 89 89 S 7 11 29.94 1014 10 16 0.00 0.00
11:35 pm 23:35 Clear 76 24.3 71 21.5 84 84 S 8 13 29.94 1014 10 16 0.00 0.00
11:55 pm 23:55 Clear 77 24.9 71 21.5 81 81 SSW 8 13 29.93 1014 10 16 0.00 0.00

Powered by AerisWeather